ProjectID,Date,Electric Generation,Electric Utility Import,Facility Electric Load
,YYYY-MM-DD,kW,kW,kW
178,2014-02-01,0.0,,0.0
178,2014-02-02,0.0,,0.0
178,2014-02-03,0.0,,0.0
178,2014-02-04,0.0,,0.0
178,2014-02-05,0.0,,0.0
178,2014-02-06,0.0,,0.0
178,2014-02-07,0.0,,0.0
178,2014-02-08,0.0,,0.0
178,2014-02-09,0.0,,0.0
178,2014-02-10,0.0,,0.0
178,2014-02-11,0.0,,0.0
178,2014-02-12,0.0,,0.0
178,2014-02-13,0.0,,0.0
178,2014-02-14,0.0,,0.0
178,2014-02-15,0.0,,0.0
178,2014-02-16,0.0,,0.0
178,2014-02-17,0.0,,0.0
178,2014-02-18,11.866666666666667,,11.866666666666667
178,2014-02-19,36.6,,36.6
178,2014-02-20,11.853333333333333,,11.853333333333333
178,2014-02-21,17.333333333333332,,17.333333333333332
178,2014-02-22,56.16,,56.16
178,2014-02-23,61.333333333333336,,61.333333333333336
178,2014-02-24,26.74,,26.74
178,2014-02-25,37.76,,37.76
178,2014-02-26,41.193333333333335,,41.193333333333335
178,2014-02-27,0.0,,0.0
178,2014-02-28,67.35333333333334,,67.35333333333334
178,2014-03-01,35.800000000000004,,35.800000000000004
178,2014-03-02,1.0733333333333335,,1.0733333333333335
178,2014-03-03,1.9066666666666665,,1.9066666666666665
178,2014-03-04,0.94,,0.94
178,2014-03-05,0.7133333333333334,,0.7133333333333334
178,2014-03-06,0.0,,0.0
178,2014-03-07,0.0,,0.0
178,2014-03-08,0.0,,0.0
178,2014-03-09,0.0,,0.0
178,2014-03-10,0.0,,0.0
178,2014-03-11,0.0,,0.0
178,2014-03-12,0.9266666666666666,,0.9266666666666666
178,2014-03-13,4.5,,4.5
178,2014-03-14,51.413333333333334,,51.413333333333334
178,2014-03-15,26.126666666666665,,26.126666666666665
178,2014-03-16,62.699999999999996,,62.699999999999996
178,2014-03-17,70.47333333333333,,70.47333333333333
178,2014-03-18,73.07333333333334,,73.07333333333334
178,2014-03-19,20.426666666666666,,20.426666666666666
178,2014-03-20,8.36,,8.36
178,2014-03-21,57.97333333333333,,57.97333333333333
178,2014-03-22,14.106666666666667,,14.106666666666667
178,2014-03-23,40.013333333333335,,40.013333333333335
178,2014-03-24,39.65333333333333,,39.65333333333333
178,2014-03-25,67.67999999999999,,67.67999999999999
178,2014-03-26,45.29333333333333,,45.29333333333333
178,2014-03-27,35.906666666666666,,35.906666666666666
178,2014-03-28,8.68,,8.68
178,2014-03-29,13.840000000000002,,13.840000000000002
178,2014-03-30,5.973333333333334,,5.973333333333334
178,2014-03-31,65.77333333333333,,65.77333333333333
178,2014-04-01,46.98666666666667,,46.98666666666667
178,2014-04-02,83.38666666666667,,83.38666666666667
178,2014-04-03,47.553333333333335,,47.553333333333335
178,2014-04-04,12.106666666666667,,12.106666666666667
178,2014-04-05,32.526666666666664,,32.526666666666664
178,2014-04-06,76.8,,76.8
178,2014-04-07,23.900000000000002,,23.900000000000002
178,2014-04-08,37.593333333333334,,37.593333333333334
178,2014-04-09,79.24666666666667,,79.24666666666667
178,2014-04-10,72.18666666666667,,72.18666666666667
178,2014-04-11,61.18,,61.18
178,2014-04-12,64.66,,64.66
178,2014-04-13,56.35958333333334,,56.35958333333334
178,2014-04-14,31.020416666666666,,31.020416666666666
178,2014-04-15,2.14,,2.14
178,2014-04-16,48.94,,48.94
178,2014-04-17,81.66,,81.66
178,2014-04-18,59.86666666666667,,59.86666666666667
178,2014-04-19,79.30041666666666,,79.30041666666666
178,2014-04-20,80.48666666666666,,80.48666666666666
178,2014-04-21,59.21958333333333,,59.21958333333333
178,2014-04-22,25.88625,,25.88625
178,2014-04-23,42.03958333333333,,42.03958333333333
178,2014-04-24,85.36,,85.36
178,2014-04-25,47.96666666666667,,47.96666666666667
178,2014-04-26,18.833333333333332,,18.833333333333332
178,2014-04-27,59.76,,59.76
178,2014-04-28,72.63333333333334,,72.63333333333334
178,2014-04-29,19.119583333333335,,19.119583333333335
178,2014-04-30,17.24,,17.24
178,2014-05-01,61.81916666666667,,61.81916666666667
178,2014-05-02,48.01333333333333,,48.01333333333333
178,2014-05-03,45.76666666666667,,45.76666666666667
178,2014-05-04,57.07958333333334,,57.07958333333334
178,2014-05-05,66.08666666666666,,66.08666666666666
178,2014-05-06,83.26041666666667,,83.26041666666667
178,2014-05-07,71.58,,71.58
178,2014-05-08,62.4,,62.4
178,2014-05-09,56.73291666666666,,56.73291666666666
178,2014-05-10,68.31333333333333,,68.31333333333333
178,2014-05-11,84.42708333333333,,84.42708333333333
178,2014-05-12,52.70708333333334,,52.70708333333334
178,2014-05-13,60.86000000000001,,60.86000000000001
178,2014-05-14,48.60041666666667,,48.60041666666667
178,2014-05-15,27.392916666666665,,27.392916666666665
178,2014-05-16,27.64708333333333,,27.64708333333333
178,2014-05-17,68.20666666666666,,68.20666666666666
178,2014-05-18,72.11958333333332,,72.11958333333332
178,2014-05-19,67.60041666666667,,67.60041666666667
178,2014-05-20,48.22708333333333,,48.22708333333333
178,2014-05-21,43.01958333333334,,43.01958333333334
178,2014-05-22,45.33958333333334,,45.33958333333334
178,2014-05-23,43.17333333333334,,43.17333333333334
178,2014-05-24,95.23333333333333,,95.23333333333333
178,2014-05-25,90.81333333333333,,90.81333333333333
178,2014-05-26,82.19333333333334,,82.19333333333334
178,2014-05-27,65.88,,65.88
178,2014-05-28,53.46625,,53.46625
178,2014-05-29,62.92041666666666,,62.92041666666666
178,2014-05-30,0.0,,0.0
178,2014-05-31,114.22666666666667,,114.22666666666667
178,2014-06-01,107.62666666666667,,107.62666666666667
178,2014-06-02,94.90666666666668,,94.90666666666668
178,2014-06-03,74.54666666666667,,74.54666666666667
178,2014-06-04,75.92666666666666,,75.92666666666666
178,2014-06-05,59.52,,59.52
178,2014-06-06,105.24000000000001,,105.24000000000001
178,2014-06-07,109.63333333333333,,109.63333333333333
178,2014-06-08,41.14625,,41.14625
178,2014-06-09,91.68041666666666,,91.68041666666666
178,2014-06-10,82.98666666666666,,82.98666666666666
178,2014-06-11,59.787083333333335,,59.787083333333335
178,2014-06-12,38.819583333333334,,38.819583333333334
178,2014-06-13,65.85333333333334,,65.85333333333334
178,2014-06-14,67.43291666666667,,67.43291666666667
178,2014-06-15,110.08,,110.08
178,2014-06-16,79.75291666666666,,79.75291666666666
178,2014-06-17,88.37333333333333,,88.37333333333333
178,2014-06-18,59.54666666666666,,59.54666666666666
178,2014-06-19,113.76041666666667,,113.76041666666667
178,2014-06-20,96.16666666666667,,96.16666666666667
178,2014-06-21,107.82666666666667,,107.82666666666667
178,2014-06-22,110.89291666666666,,110.89291666666666
178,2014-06-23,80.03291666666667,,80.03291666666667
178,2014-06-24,78.32708333333333,,78.32708333333333
178,2014-06-25,40.39958333333333,,40.39958333333333
178,2014-06-26,91.58625,,91.58625
178,2014-06-27,105.60708333333334,,105.60708333333334
178,2014-06-28,75.64708333333333,,75.64708333333333
178,2014-06-29,76.27291666666666,,76.27291666666666
178,2014-06-30,103.06,,103.06
178,2014-07-01,95.48041666666667,,95.48041666666667
178,2014-07-02,89.41333333333334,,89.41333333333334
178,2014-07-03,47.12625,,47.12625
178,2014-07-04,101.78666666666668,,101.78666666666668
178,2014-07-05,112.44666666666666,,112.44666666666666
178,2014-07-06,106.27333333333333,,106.27333333333333
178,2014-07-07,49.03958333333333,,49.03958333333333
178,2014-07-08,52.22666666666667,,52.22666666666667
178,2014-07-09,47.18666666666667,,47.18666666666667
178,2014-07-10,102.64666666666666,,102.64666666666666
178,2014-07-11,106.48,,106.48
178,2014-07-12,100.46666666666665,,100.46666666666665
178,2014-07-13,43.427083333333336,,43.427083333333336
178,2014-07-14,69.62708333333333,,69.62708333333333
178,2014-07-15,92.17333333333333,,92.17333333333333
178,2014-07-16,87.93291666666666,,87.93291666666666
178,2014-07-17,96.42041666666667,,96.42041666666667
178,2014-07-18,84.86,,84.86
178,2014-07-19,29.80666666666667,,29.80666666666667
178,2014-07-20,52.27333333333333,,52.27333333333333
178,2014-07-21,96.58666666666666,,96.58666666666666
178,2014-07-22,101.61375,,101.61375
178,2014-07-23,41.76625,,41.76625
178,2014-07-24,105.25999999999999,,105.25999999999999
178,2014-07-25,100.88041666666668,,100.88041666666668
178,2014-07-26,85.32666666666667,,85.32666666666667
178,2014-07-27,87.22000000000001,,87.22000000000001
178,2014-07-28,22.46666666666667,,22.46666666666667
178,2014-07-29,54.48708333333334,,54.48708333333334
178,2014-07-30,73.38,,73.38
178,2014-07-31,90.88666666666667,,90.88666666666667
178,2014-08-01,98.76708333333333,,98.76708333333333
178,2014-08-02,83.21291666666666,,83.21291666666666
178,2014-08-03,29.28,,29.28
178,2014-08-04,91.25291666666668,,91.25291666666668
178,2014-08-05,41.69958333333333,,41.69958333333333
178,2014-08-06,83.03958333333334,,83.03958333333334
178,2014-08-07,91.06625000000001,,91.06625000000001
178,2014-08-08,90.91375,,90.91375
178,2014-08-09,98.86666666666667,,98.86666666666667
178,2014-08-10,93.72000000000001,,93.72000000000001
178,2014-08-11,76.11333333333333,,76.11333333333333
178,2014-08-12,48.986250000000005,,48.986250000000005
178,2014-08-13,71.02708333333334,,71.02708333333334
178,2014-08-14,62.5,,62.5
178,2014-08-15,60.23374999999999,,60.23374999999999
178,2014-08-16,36.15333333333333,,36.15333333333333
178,2014-08-17,73.26625,,73.26625
178,2014-08-18,80.20708333333333,,80.20708333333333
178,2014-08-19,82.51291666666667,,82.51291666666667
178,2014-08-20,47.12625,,47.12625
178,2014-08-21,86.27333333333333,,86.27333333333333
178,2014-08-22,69.59375,,69.59375
178,2014-08-23,58.45333333333334,,58.45333333333334
178,2014-08-24,77.35291666666667,,77.35291666666667
178,2014-08-25,81.5,,81.5
178,2014-08-26,90.13416666666666,,90.13416666666666
178,2014-08-27,74.53291666666667,,74.53291666666667
178,2014-08-28,93.28666666666668,,93.28666666666668
178,2014-08-29,86.83958333333334,,86.83958333333334
178,2014-08-30,77.37375,,77.37375
178,2014-08-31,31.047083333333333,,31.047083333333333
178,2014-09-01,77.20083333333334,,77.20083333333334
178,2014-09-02,30.080833333333334,,30.080833333333334
178,2014-09-03,85.5,,85.5
178,2014-09-04,88.90625,,88.90625
178,2014-09-05,71.94666666666667,,71.94666666666667
178,2014-09-06,33.26541666666667,,33.26541666666667
178,2014-09-07,95.83333333333333,,95.83333333333333
178,2014-09-08,89.7525,,89.7525
178,2014-09-09,60.166666666666664,,60.166666666666664
178,2014-09-10,49.68083333333333,,49.68083333333333
178,2014-09-11,27.18625,,27.18625
178,2014-09-12,31.747500000000002,,31.747500000000002
178,2014-09-13,29.27333333333333,,29.27333333333333
178,2014-09-14,55.5325,,55.5325
178,2014-09-15,58.020833333333336,,58.020833333333336
178,2014-09-16,77.58583333333333,,77.58583333333333
178,2014-09-17,75.60708333333334,,75.60708333333334
178,2014-09-18,31.754166666666666,,31.754166666666666
178,2014-09-19,87.96125,,87.96125
178,2014-09-20,77.8725,,77.8725
178,2014-09-21,64.47375,,64.47375
178,2014-09-22,30.62,,30.62
178,2014-09-23,86.20666666666666,,86.20666666666666
178,2014-09-24,83.44666666666667,,83.44666666666667
178,2014-09-25,82.76041666666667,,82.76041666666667
178,2014-09-26,81.86708333333333,,81.86708333333333
178,2014-09-27,80.53416666666666,,80.53416666666666
178,2014-09-28,72.48583333333333,,72.48583333333333
178,2014-09-29,77.06125,,77.06125
178,2014-09-30,57.053333333333335,,57.053333333333335
178,2014-10-01,31.019583333333333,,31.019583333333333
178,2014-10-02,71.58749999999999,,71.58749999999999
178,2014-10-03,56.68,,56.68
178,2014-10-04,29.399583333333336,,29.399583333333336
178,2014-10-05,14.006666666666668,,14.006666666666668
178,2014-10-06,50.40625,,50.40625
178,2014-10-07,55.6275,,55.6275
178,2014-10-08,51.62125,,51.62125
178,2014-10-09,74.17333333333333,,74.17333333333333
178,2014-10-10,51.18083333333333,,51.18083333333333
178,2014-10-11,52.47416666666667,,52.47416666666667
178,2014-10-12,76.25916666666667,,76.25916666666667
178,2014-10-13,29.55333333333333,,29.55333333333333
178,2014-10-14,45.260416666666664,,45.260416666666664
178,2014-10-15,12.805833333333332,,12.805833333333332
178,2014-10-16,38.946666666666665,,38.946666666666665
178,2014-10-17,21.600416666666664,,21.600416666666664
178,2014-10-18,13.459583333333333,,13.459583333333333
178,2014-10-19,48.46083333333333,,48.46083333333333
178,2014-10-20,21.886666666666667,,21.886666666666667
178,2014-10-21,11.260416666666666,,11.260416666666666
178,2014-10-22,14.90625,,14.90625
178,2014-10-23,70.38666666666667,,70.38666666666667
178,2014-10-24,57.50666666666667,,57.50666666666667
178,2014-10-25,39.705416666666665,,39.705416666666665
178,2014-10-26,11.833333333333334,,11.833333333333334
178,2014-10-27,58.760416666666664,,58.760416666666664
178,2014-10-28,39.50625,,39.50625
178,2014-10-29,23.194166666666664,,23.194166666666664
178,2014-10-30,31.787499999999998,,31.787499999999998
178,2014-10-31,13.753749999999998,,13.753749999999998
178,2014-11-01,9.520833333333334,,9.520833333333334
178,2014-11-02,67.25916666666667,,67.25916666666667
178,2014-11-03,47.89333333333334,,47.89333333333334
178,2014-11-04,21.5325,,21.5325
178,2014-11-05,44.979166666666664,,44.979166666666664
178,2014-11-06,11.425833333333335,,11.425833333333335
178,2014-11-07,19.47375,,19.47375
178,2014-11-08,14.99375,,14.99375
178,2014-11-09,19.399583333333332,,19.399583333333332
178,2014-11-10,45.08708333333333,,45.08708333333333
178,2014-11-11,53.44,,53.44
178,2014-11-12,20.44666666666667,,20.44666666666667
178,2014-11-13,13.865833333333333,,13.865833333333333
178,2014-11-14,23.559583333333332,,23.559583333333332
178,2014-11-15,18.606666666666666,,18.606666666666666
178,2014-11-16,27.13416666666667,,27.13416666666667
178,2014-11-17,0.8137500000000001,,0.8137500000000001
178,2014-11-18,9.760416666666666,,9.760416666666666
178,2014-11-19,3.0079166666666666,,3.0079166666666666
178,2014-11-20,2.28,,2.28
178,2014-11-21,5.713333333333334,,5.713333333333334
178,2014-11-22,4.666666666666667,,4.666666666666667
178,2014-11-23,13.040416666666667,,13.040416666666667
178,2014-11-24,15.672916666666666,,15.672916666666666
178,2014-11-25,2.299583333333333,,2.299583333333333
178,2014-11-26,4.359583333333333,,4.359583333333333
178,2014-11-27,19.613333333333333,,19.613333333333333
178,2014-11-28,0.46125,,0.46125
178,2014-11-29,0.6991666666666667,,0.6991666666666667
178,2014-11-30,11.032499999999999,,11.032499999999999
178,2014-12-01,19.414166666666667,,19.414166666666667
178,2014-12-02,26.559583333333332,,26.559583333333332
178,2014-12-03,3.72,,3.72
178,2014-12-04,41.645833333333336,,41.645833333333336
178,2014-12-05,12.420833333333334,,12.420833333333334
178,2014-12-06,14.04,,14.04
178,2014-12-07,46.01291666666666,,46.01291666666666
178,2014-12-08,19.112916666666667,,19.112916666666667
178,2014-12-09,33.92041666666667,,33.92041666666667
178,2014-12-10,3.8008333333333333,,3.8008333333333333
178,2014-12-11,0.0,,0.0
178,2014-12-12,0.0,,0.0
178,2014-12-13,0.0,,0.0
178,2014-12-14,0.7929166666666667,,0.7929166666666667
178,2014-12-15,8.84625,,8.84625
178,2014-12-16,4.713333333333334,,4.713333333333334
178,2014-12-17,6.766666666666667,,6.766666666666667
178,2014-12-18,2.8654166666666665,,2.8654166666666665
178,2014-12-19,6.78,,6.78
178,2014-12-20,31.072916666666668,,31.072916666666668
178,2014-12-21,22.707083333333333,,22.707083333333333
178,2014-12-22,35.260416666666664,,35.260416666666664
178,2014-12-23,10.953333333333333,,10.953333333333333
178,2014-12-24,9.28,,9.28
178,2014-12-25,13.672916666666666,,13.672916666666666
178,2014-12-26,33.79291666666666,,33.79291666666666
178,2014-12-27,23.28,,23.28
178,2014-12-28,13.393333333333333,,13.393333333333333
178,2014-12-29,12.5675,,12.5675
178,2014-12-30,24.533749999999998,,24.533749999999998
178,2014-12-31,34.200833333333335,,34.200833333333335
178,2015-01-01,0.75375,,0.75375
178,2015-01-02,32.82041666666667,,32.82041666666667
178,2015-01-03,4.247083333333333,,4.247083333333333
178,2015-01-04,4.1066666666666665,,4.1066666666666665
178,2015-01-05,38.65375,,38.65375
178,2015-01-06,11.359583333333333,,11.359583333333333
178,2015-01-07,2.78,,2.78
178,2015-01-08,13.799583333333333,,13.799583333333333
178,2015-01-09,0.027083333333333334,,0.027083333333333334
178,2015-01-10,0.0,,0.0
178,2015-01-11,2.2670833333333333,,2.2670833333333333
178,2015-01-12,0.0,,0.0
178,2015-01-13,0.0,,0.0
178,2015-01-14,0.006666666666666667,,0.006666666666666667
178,2015-01-15,0.07291666666666667,,0.07291666666666667
178,2015-01-16,6.899583333333333,,6.899583333333333
178,2015-01-17,9.745833333333334,,9.745833333333334
178,2015-01-18,11.5,,11.5
178,2015-01-19,11.732916666666666,,11.732916666666666
178,2015-01-20,0.0,,0.0
178,2015-01-21,29.173333333333332,,29.173333333333332
178,2015-01-22,24.106666666666666,,24.106666666666666
178,2015-01-23,19.672916666666666,,19.672916666666666
178,2015-01-24,7.0129166666666665,,7.0129166666666665
178,2015-01-25,27.166666666666668,,27.166666666666668
178,2015-01-26,19.66,,19.66
178,2015-01-27,3.6941666666666664,,3.6941666666666664
178,2015-01-28,33.60666666666666,,33.60666666666666
178,2015-01-29,6.153333333333333,,6.153333333333333
178,2015-01-30,1.0999999999999999,,1.0999999999999999
178,2015-01-31,1.9937500000000001,,1.9937500000000001
178,2015-02-01,0.7058333333333334,,0.7058333333333334
178,2015-02-02,0.0,,0.0
178,2015-02-03,0.0,,0.0
178,2015-02-04,0.0,,0.0
178,2015-02-05,0.0,,0.0
178,2015-02-06,0.0,,0.0
178,2015-02-07,0.0,,0.0
178,2015-02-08,0.0,,0.0
178,2015-02-09,0.0,,0.0
178,2015-02-10,0.0,,0.0
178,2015-02-11,0.0,,0.0
178,2015-02-12,0.0,,0.0
178,2015-02-13,0.0,,0.0
178,2015-02-14,0.0,,0.0
178,2015-02-15,0.0,,0.0
178,2015-02-16,0.0,,0.0
178,2015-02-17,0.0,,0.0
178,2015-02-18,0.0,,0.0
178,2015-02-19,0.0,,0.0
178,2015-02-20,0.0,,0.0
178,2015-02-21,0.0,,0.0
178,2015-02-22,0.0,,0.0
178,2015-02-23,0.0,,0.0
178,2015-02-24,0.0,,0.0
178,2015-02-25,0.0,,0.0
178,2015-02-26,0.0,,0.0
178,2015-02-27,0.0,,0.0
178,2015-02-28,0.0,,0.0
178,2015-03-01,0.0,,0.0
178,2015-03-02,0.0,,0.0
178,2015-03-03,0.0,,0.0
178,2015-03-04,0.006666666666666667,,0.006666666666666667
178,2015-03-05,0.0,,0.0
178,2015-03-06,0.08541666666666665,,0.08541666666666665
178,2015-03-07,0.0,,0.0
178,2015-03-08,0.24041666666666664,,0.24041666666666664
178,2015-03-09,2.6654166666666668,,2.6654166666666668
178,2015-03-10,1.9608333333333334,,1.9608333333333334
178,2015-03-11,11.106666666666667,,11.106666666666667
178,2015-03-12,31.980833333333333,,31.980833333333333
178,2015-03-13,43.286249999999995,,43.286249999999995
178,2015-03-14,13.679583333333333,,13.679583333333333
178,2015-03-15,29.78,,29.78
178,2015-03-16,49.553333333333335,,49.553333333333335
178,2015-03-17,56.43333333333334,,56.43333333333334
178,2015-03-18,61.833333333333336,,61.833333333333336
178,2015-03-19,90.89458333333333,,90.89458333333333
178,2015-03-20,50.77375,,50.77375
178,2015-03-21,20.692916666666665,,20.692916666666665
178,2015-03-22,51.07958333333334,,51.07958333333334
178,2015-03-23,94.6875,,94.6875
178,2015-03-24,90.48708333333333,,90.48708333333333
178,2015-03-25,24.800833333333333,,24.800833333333333
178,2015-03-26,4.647083333333334,,4.647083333333334
178,2015-03-27,12.106666666666667,,12.106666666666667
178,2015-03-28,54.69416666666667,,54.69416666666667
178,2015-03-29,83.6875,,83.6875
178,2015-03-30,26.454583333333332,,26.454583333333332
178,2015-03-31,38.485416666666666,,38.485416666666666
178,2015-04-01,96.66000000000001,,96.66000000000001
178,2015-04-02,64.58083333333333,,64.58083333333333
178,2015-04-03,39.94041666666667,,39.94041666666667
178,2015-04-04,67.77958333333333,,67.77958333333333
178,2015-04-05,18.37375,,18.37375
178,2015-04-06,57.43333333333334,,57.43333333333334
178,2015-04-07,51.4075,,51.4075
178,2015-04-08,9.993333333333334,,9.993333333333334
178,2015-04-09,38.95291666666667,,38.95291666666667
178,2015-04-10,46.60666666666666,,46.60666666666666
178,2015-04-11,50.760416666666664,,50.760416666666664
178,2015-04-12,101.49333333333334,,101.49333333333334
178,2015-04-13,81.64708333333333,,81.64708333333333
178,2015-04-14,81.83333333333333,,81.83333333333333
178,2015-04-15,102.20708333333333,,102.20708333333333
178,2015-04-16,77.28666666666668,,77.28666666666668
178,2015-04-17,73.34625,,73.34625
178,2015-04-18,104.13291666666667,,104.13291666666667
178,2015-04-19,96.53250000000001,,96.53250000000001
178,2015-04-20,32.4,,32.4
178,2015-04-21,98.17958333333333,,98.17958333333333
178,2015-04-22,71.98666666666666,,71.98666666666666
178,2015-04-23,30.08583333333333,,30.08583333333333
178,2015-04-24,66.16666666666667,,66.16666666666667
178,2015-04-25,109.0,,109.0
178,2015-04-26,73.99374999999999,,73.99374999999999
178,2015-04-27,37.39958333333333,,37.39958333333333
178,2015-04-28,108.17333333333333,,108.17333333333333
178,2015-04-29,105.93333333333334,,105.93333333333334
178,2015-04-30,99.88666666666667,,99.88666666666667
178,2015-05-01,102.87374999999999,,102.87374999999999
178,2015-05-02,104.35958333333333,,104.35958333333333
178,2015-05-03,103.39333333333333,,103.39333333333333
178,2015-05-04,71.39333333333333,,71.39333333333333
178,2015-05-05,50.927083333333336,,50.927083333333336
178,2015-05-06,91.44,,91.44
178,2015-05-07,100.45333333333333,,100.45333333333333
178,2015-05-08,91.85916666666667,,91.85916666666667
178,2015-05-09,90.02749999999999,,90.02749999999999
178,2015-05-10,78.46708333333333,,78.46708333333333
178,2015-05-11,87.29458333333334,,87.29458333333334
178,2015-05-12,63.61333333333334,,63.61333333333334
178,2015-05-13,35.43333333333333,,35.43333333333333
178,2015-05-14,109.51958333333333,,109.51958333333333
178,2015-05-15,49.60666666666666,,49.60666666666666
178,2015-05-16,67.62,,67.62
178,2015-05-17,80.27333333333333,,80.27333333333333
178,2015-05-18,76.04041666666667,,76.04041666666667
178,2015-05-19,66.04041666666667,,66.04041666666667
178,2015-05-20,103.25416666666666,,103.25416666666666
178,2015-05-21,103.38666666666667,,103.38666666666667
178,2015-05-22,86.39958333333334,,86.39958333333334
178,2015-05-23,114.97375,,114.97375
178,2015-05-24,97.37875000000001,,97.37875000000001
178,2015-05-25,65.1875,,65.1875
178,2015-05-26,88.38041666666668,,88.38041666666668
178,2015-05-27,84.95333333333333,,84.95333333333333
178,2015-05-28,97.19416666666666,,97.19416666666666
178,2015-05-29,89.84625,,89.84625
178,2015-05-30,96.16166666666668,,96.16166666666668
178,2015-05-31,15.726666666666667,,15.726666666666667
178,2015-06-01,31.471249999999998,,31.471249999999998
178,2015-06-02,87.80208333333333,,87.80208333333333
178,2015-06-03,98.49208333333333,,98.49208333333333
178,2015-06-04,65.49208333333333,,65.49208333333333
178,2015-06-05,86.08583333333333,,86.08583333333333
178,2015-06-06,113.40625,,113.40625
178,2015-06-07,99.14583333333333,,99.14583333333333
178,2015-06-08,34.60166666666667,,34.60166666666667
178,2015-06-09,36.9925,,36.9925
178,2015-06-10,87.125,,87.125
178,2015-06-11,92.90666666666668,,92.90666666666668
178,2015-06-12,66.17958333333333,,66.17958333333333
178,2015-06-13,85.39333333333333,,85.39333333333333
178,2015-06-14,40.90916666666667,,40.90916666666667
178,2015-06-15,53.50791666666667,,53.50791666666667
178,2015-06-16,70.13791666666667,,70.13791666666667
178,2015-06-17,88.29416666666667,,88.29416666666667
178,2015-06-18,82.06,,82.06
178,2015-06-19,70.58083333333333,,70.58083333333333
178,2015-06-20,77.98708333333333,,77.98708333333333
178,2015-06-21,85.19291666666668,,85.19291666666668
178,2015-06-22,99.14583333333333,,99.14583333333333
178,2015-06-23,88.61958333333332,,88.61958333333332
178,2015-06-24,108.46625,,108.46625
178,2015-06-25,92.70041666666667,,92.70041666666667
178,2015-06-26,103.26041666666667,,103.26041666666667
178,2015-06-27,12.786666666666667,,12.786666666666667
178,2015-06-28,28.606666666666666,,28.606666666666666
178,2015-06-29,90.94541666666667,,90.94541666666667
178,2015-06-30,55.57541666666666,,55.57541666666666
178,2015-07-01,50.22083333333333,,50.22083333333333
178,2015-07-02,97.15375,,97.15375